Weather Roundup
Issued by NWS

Home | Current Version | Previous Version | Graphics & Text | Print | Product List | Glossary Off
Versions: 1 2 3 4 5 6 7 8 9 10 11 12 13 14 15 16 17 18 19 20 21 22 23 24 25 26 27 28 29 30 31 32 33 34 35 36 37 38 39 40 41 42 43 44 45 46 47 48 49 50

000
NZUS93 KARX 260810
HRRWXR

CURRENT HOURLY OBSERVATIONS ACROSS
MUCH OF THE UPPER MISSISSIPPI VALLEY
NATIONAL WEATHER SERVICE LA CROSSE WI
200 AM CST WED NOV 26 2014


...SOUTHEAST MINNESOTA...


CITY           SKY/WX    TMP DP  RH WIND       PRES   REMARKS
ROCHESTER      CLOUDY    19  14  81 SE10      30.01S WCI   7
ROCHESTER/MAYO PTSUNNY   20  13  76 SE10      30.02S WCI   9
WINONA         CLOUDY    21  18  86 SE8       30.09S WCI  12
AUSTIN         LGT SNOW  25  19  80 SE8       29.99F WCI  16
ALBERT LEA     LGT SNOW  25  19  80 SE14      29.97R WCI  13
DODGE CENTER   CLOUDY    21  18  86 SE9       29.99S WCI  11
PRESTON        MOCLDY    17  14  87 SE3       30.02F
OWATONNA       LGT SNOW  25  19  80 SE13      29.98S WCI  13
FARIBAULT      LGT SNOW  25  18  74 SE7       30.00R WCI  17
$$

...ELSEWHERE IN MINNESOTA...


CITY           SKY/WX    TMP DP  RH WIND       PRES   REMARKS
MINNEAPOLIS    CLOUDY    24  16  71 E9        30.03S WCI  14
INTNL FALLS    LGT SNOW  14  10  84 N5        30.10R FOG     WCI   6
DULUTH         CLOUDY    19  10  68 NE3       30.05R
RED WING       CLOUDY    23  14  68 E6        30.05S WCI  16
REDWOOD FALLS  LGT SNOW  26  23  88 E9        29.93R FOG     WCI  17
MANKATO        CLOUDY    25  16  68 SE14      29.96R WCI  13
WORTHINGTON    CLOUDY    27  25  93 SE12      29.85S WCI  16
FAIRMONT       CLOUDY    27  21  80 SE13      29.91S WCI  16
$$

...SOUTHWEST WISCONSIN...


CITY           SKY/WX    TMP DP  RH WIND       PRES   REMARKS
LA CROSSE      CLOUDY    20  14  77 SE6       30.10F WCI  12
PRAIRIE DU CHI MOCLDY    16  13  86 SE3       30.11S
BOSCOBEL       MOCLDY    11   7  84 CALM      30.13S
LONE ROCK      PTCLDY     6  -1  73 CALM      30.14S
PLATTEVILLE    PTCLDY    15  13  92 CALM      30.11S
FORT MC COY    CLOUDY    17  14  89 CALM      30.11F
CAMP DOUGLAS   CLOUDY     7   7  99 E3        30.12R
VIROQUA        PTSUNNY   15  14  95 SE8       30.06F WCI   4
WIS DELLS      PTCLDY     4   1  86 CALM      30.12S
$$

...ELSEWHERE IN WISCONSIN...


CITY           SKY/WX    TMP DP  RH WIND       PRES   REMARKS
MILWAUKEE      PTCLDY    18  13  80 SW3       30.18S
MADISON        CLEAR     12  10  92 N3        30.14R
GREEN BAY      CLOUDY    12   9  87 CALM      30.18S
EAU CLAIRE     CLOUDY    22  15  75 E7        30.07F WCI  13
BLACK RVR FLS  CLOUDY    21  15  79 CALM      30.11S
MEDFORD        CLOUDY    18  15  87 CALM      30.08R
WAUSAU         CLOUDY    14  11  87 E5        30.09F WCI   6
WIS RAPIDS     CLOUDY    17  13  84 SE5       30.13R WCI  10
MARSHFIELD     CLOUDY    20  15  81 E5        30.09R WCI  13
RICE LAKE      CLOUDY    22  17  81 E3        30.09S
$$

...NORTHEAST IOWA...


CITY           SKY/WX    TMP DP  RH WIND       PRES   REMARKS
DECORAH        MOCLDY    18  14  86 SE6       30.03F WCI   9
MASON CITY     CLOUDY    24  19  81 SE10      29.98S WCI  14
CHARLES CITY   CLOUDY    23  19  86 SE13      30.01S WCI  11
OELWEIN        CLOUDY    21  18  86 SE15      30.03F WCI   8
$$

...ELSEWHERE IN IOWA...


CITY           SKY/WX    TMP DP  RH WIND       PRES   REMARKS
DES MOINES     CLOUDY    33  18  53 S6        29.96S WCI  28
IOWA CITY      MOCLDY    21  18  88 SE5       30.08F WCI  15
FORT DODGE     CLOUDY    27  21  80 SE10      29.91F VSB 1   WCI  17
$$

...NORTHERN ILLINOIS...


CITY           SKY/WX    TMP DP  RH WIND       PRES   REMARKS
CHICAGO-OHARE  MOCLDY    20  15  81 CALM      30.17S
CHICAGO-MIDWAY MOCLDY    24  18  77 CALM      30.18S
MOLINE         CLEAR     12   9  87 E6        30.11F WCI   3
ROCKFORD       PTCLDY    10   7  87 CALM      30.16F FOG
PEORIA         FAIR      24  19  81 SE3       30.13F
$$

NOTE: "FAIR" INDICATES FEW OR NO CLOUDS BELOW 12,000 FEET WITH NO
SIGNIFICANT WEATHER AND/OR OBSTRUCTIONS TO VISIBILITY. WIND
SPEEDS ARE IN MILES-PER-HOUR.



USA.gov is the U.S. government's official web portal to all federal, state and local government web resources and services.